Location: ?????
(55.6500°N, 37.2500°E)
Time: 14:25:19
(UTC+00:00)

Cosmos 1707 - Pass Details

Date: 19 May 2025
Orbit: 422 x 430 km, 82.5° (Epoch: 19 June)

Event Time Altitude Azimuth Distance (km) Brightness Sun altitude
Exits shadow 21:20:41 26° 208° (SSW) 897 3.4 -14.4°
Maximum altitude 21:22:25 65° 284° (WNW) 483 2.5 -14.4°
Drops below altitude 10° 21:25:47 10° 7° (N) 1,557 6.5 -14.4°
Sets 21:27:52 0° 11° (N) 2,432 7.9 -14.4°
